Weather observations for the past three days for
Findlay, Findlay Airport
Imperial (Metric)
Date Time (edt) Wind (mph) Vis. (mi.) Weather Sky Cond. Temperature (ºF) Relative Humidity Wind Chill (°F) Heat Index (°F) Pressure Precipitation (in)
Air Dwpt 6 hour altimeter (in) sea level (mb) 1 hr 3 hr 6 hr
Max. Min.
14 03:53 W 16 10.00 Partly Cloudy SCT060 73.9 59 60% 29.88 1010.8
14 02:53 W 8 10.00 Mostly Cloudy BKN070 72 60.1 66% 29.88 1010.9
14 01:53 W 3 10.00 Fair CLR 71.1 61 87.1 68 71% 29.89 1011.1
14 00:53 S 6 10.00 Fair CLR 69.1 61 76% 29.88 1010.9
13 23:53 S 3 10.00 Fair CLR 72 61 68% 29.88 1010.7
13 22:53 N 5 10.00 Fair CLR 73.9 61 64% 29.88 1010.8
13 21:53 SW 7 10.00 Fair CLR 78.1 55.9 47% 79 29.88 1010.7
13 20:53 SW 8 10.00 Light Rain OVC085 84.9 53.1 33% 83 29.9 1011.5
13 19:53 SW 13 10.00 Mostly Cloudy BKN090 87.1 54 91 87.1 32% 85 29.88 1010.8
13 18:53 SW 15 10.00 Overcast OVC090 89.1 54 30% 87 29.88 1010.7
13 17:53 SW 17 G 29 10.00 Partly Cloudy SCT100 90 55.9 32% 88 29.84 1009.5
13 16:53 SW 22 G 31 10.00 A Few Clouds and Breezy FEW075 90 55 31% 88 29.87 1010.4
13 15:53 SW 15 G 32 10.00 A Few Clouds FEW120 90 59 35% 89 29.89 1010.9
13 14:53 SW 17 G 25 10.00 Fair CLR 89.1 60.1 38% 89 29.9 1011.5
13 13:53 SW 16 G 25 10.00 Fair CLR 90 61 90 73.9 38% 90 29.9 1011.6
13 12:53 S 15 G 22 10.00 Fair CLR 87.1 61 42% 87 29.9 1011.4
13 11:53 SW 13 10.00 Fair CLR 84.9 59 42% 85 29.92 1012.3
13 10:53 SW 14 G 22 10.00 A Few Clouds FEW065 82 57 43% 82 29.95 1013.1
13 09:53 SW 10 10.00 Fair CLR 80.1 55.9 44% 80 29.96 1013.5
13 08:53 SW 10 10.00 Fair CLR 77 54 45% 78 29.96 1013.5
13 07:53 SW 10 10.00 Fair CLR 73 53.1 73 68 50% 29.94 1012.9
13 06:53 SW 10 10.00 Fair CLR 70 51.1 51% 29.94 1013.0
13 05:53 SW 8 10.00 A Few Clouds FEW110 68 50 53% 29.93 1012.5
13 04:53 S 7 10.00 Partly Cloudy SCT100 69.1 50 51% 29.92 1012.3
13 03:53 SW 9 10.00 Mostly Cloudy SCT070 BKN100 71.1 51.1 49% 29.93 1012.7
13 02:53 S 8 10.00 A Few Clouds FEW110 69.1 51.1 53% 29.94 1012.8
13 01:53 S 12 10.00 Fair CLR 70 50 82.9 69.1 49% 29.94 1012.8
13 00:53 S 9 10.00 Fair CLR 71.1 48.9 46% 29.94 1012.9
12 23:53 S 8 10.00 Fair CLR 71.1 48.9 46% 29.93 1012.5
12 22:53 S 10 10.00 Fair CLR 70 50 49% 29.93 1012.5
12 21:53 S 9 10.00 Fair CLR 72 51.1 48% 29.93 1012.6
12 20:53 S 8 10.00 Fair CLR 77 51.1 40% 78 29.92 1012.3
12 19:53 S 10 10.00 Fair CLR 82.9 51.1 86 82 33% 81 29.93 1012.6
12 18:53 SW 8 10.00 Fair CLR 84 51.1 32% 82 29.93 1012.8
12 17:53 SW 12 10.00 Fair CLR 84.9 52 32% 83 29.93 1012.7
12 16:53 W 9 10.00 Fair CLR 84.9 52 32% 83 29.95 1013.2
12 15:53 SW 12 10.00 Fair CLR 84 51.1 32% 82 29.96 1013.8
12 14:53 S 7 10.00 Fair CLR 82.9 48.9 31% 81 29.97 1014.1
12 13:53 SW 10 10.00 Fair CLR 82.9 48.9 82.9 64.9 31% 81 29.99 1014.7
12 12:53 SW 10 G 20 10.00 Fair CLR 82 50 33% 81 30 1015.2
12 11:53 W 9 10.00 Fair CLR 80.1 46 30% 79 30.01 1015.5
12 10:53 SW 12 10.00 Fair CLR 78.1 48 35% 78 30.02 1015.8
12 09:53 SW 12 10.00 Fair CLR 73.9 46 37% 30.03 1016.0
12 08:53 SW 7 10.00 Fair CLR 70 48.9 47% 30.03 1016.0
12 07:53 SW 6 10.00 Partly Cloudy SCT095 64.9 50 64.9 57.9 59% 30.02 1015.8
12 06:53 S 6 10.00 Mostly Cloudy BKN095 61 51.1 70% 30.01 1015.5
12 05:53 S 6 10.00 Overcast OVC110 59 50 72% 29.99 1014.9
12 04:53 S 5 10.00 Fair CLR 57.9 48.9 72% 29.98 1014.5
12 03:53 SE 6 10.00 Fair CLR 59 48.9 69% 29.97 1014.3
12 02:53 SE 5 10.00 Fair CLR 60.1 48 65% 29.98 1014.4
12 01:53 SE 3 10.00 Fair CLR 62.1 46 75 62.1 56% 29.98 1014.6
12 00:53 E 3 10.00 Fair CLR 63 46 54% 29.98 1014.6
11 23:53 E 5 10.00 Fair CLR 63 44.1 50% 29.98 1014.4
11 22:53 E 8 10.00 Fair CLR 64.9 43 45% 29.97 1014.3
11 21:53 E 9 10.00 Fair CLR 66.9 44.1 44% 29.97 1014.1
11 20:53 SW 3 10.00 Fair CLR 71.1 45 39% 29.95 1013.6
11 19:53 Calm 10.00 Fair CLR 73.9 45 77 72 36% 29.95 1013.7
11 18:53 SW 5 10.00 Fair CLR 75 43 32% 77 29.94 1013.2
11 17:53 Vrbl 3 10.00 Fair CLR 77 44.1 31% 78 29.95 1013.6
11 16:53 N 9 10.00 A Few Clouds FEW070 77 46.9 35% 78 29.95 1013.7
11 15:53 Calm 10.00 Fair CLR 75 44.1 33% 77 29.97 1014.2
11 14:53 E 6 10.00 Partly Cloudy SCT065 73.9 45 36% 29.99 1014.8
11 13:53 NE 3 10.00 A Few Clouds FEW060 73.9 45 75 55 36% 29.99 1015.1
11 12:53 N 6 10.00 Partly Cloudy SCT060 72 45 38% 30 1015.3
11 11:53 Calm 10.00 Fair CLR 70 44.1 39% 30.01 1015.6
11 10:53 E 5 10.00 Fair CLR 66.9 48.9 53% 30.02 1015.9
11 09:53 E 10 10.00 Fair CLR 64 51.1 63% 30.01 1015.7
11 08:53 E 8 10.00 Fair CLR 60.1 50 70% 30.02 1016.0
11 07:53 Calm 10.00 Fair CLR 55 48.9 55 48.9 80% 30.01 1015.8
11 06:53 E 3 10.00 Fair CLR 52 46.9 83% 30 1015.3
11 05:53 Calm 10.00 Fair CLR 50 45 83% 29.98 1014.7
11 04:53 S 3 10.00 Fair CLR 50 45 83% 29.96 1014.2
Date Time (edt) Wind (mph) Vis. (mi.) Weather Sky Cond. Air Dwpt Max. Min. Relative Humidity Wind Chill (°F) Heat Index (°F) altimeter (in) sea level (mb) 1 hr 3 hr 6 hr
6 hour
Temperature (ºF) Pressure Precipitation (in)